weather.gov     
National Weather Service

Regional Weather Roundup
NWS Homepage
This page is being discontinued on March 12, 2014.
The same data is available at this site. Please update your bookmarks.
Thank you, and we apologize for the inconvenience.
Please send an email to SR-SRH.Webmaster@noaa.gov with any concerns.


Current Version
Previous Version:    01  02  03  04  05  06  07  08  09  10  11  12  13  14  15  16  17  18  19  20  21  22  23  24  25  26  27  28  29  30  
   31  32  33  34  35  36  37  38  39  40  41  42  43  44  45  46  47  48  49  50  51  52  53  
[Printable]
917
ASUS41 KCTP 012310
RWRCTP

REGIONAL WEATHER ROUNDUP
NATIONAL WEATHER SERVICE STATE COLLEGE PA
700 PM EDT MON SEP 01 2014

Note: "fair" indicates few or no clouds below 12,000 feet with no
significant weather and/or obstructions to visibility.

* = STATION THAT DOES NOT REPORT PRECIPITATION /E.G. RAIN...SNOW...ETC/
    THUNDER OR FOG.

PAZ002>004-007>009-013>016-020>023-029>032-020000-
WESTERN PENNSYLVANIA

CITY           SKY/WX    TMP DP  RH WIND       PRES   REMARKS
ERIE           PTCLDY    82  67  60 S13       29.85F
MEADVILLE      PTCLDY    77  68  73 S7        29.92R
FRANKLIN*      MOCLDY    75  66  73 S9        29.96R
NEW CASTLE     FAIR      79  72  79 VRB3      29.93S
BEAVER COUNTY  NOT AVBL
BUTLER*        CLEAR     77  70  78 SW8       29.97S
PITTSBURGH INT MOCLDY    79  69  71 SW8       29.95S
PITTSBURGH     PTCLDY    78  68  71 S7        29.95F
INDIANA*       MOCLDY    77  72  83 SW5       30.01F
LATROBE        PTCLDY    81  73  78 SW12      29.98S
WASHINGTON CO* PTCLDY    75  70  83 S5        29.97F
$$

PAZ004>006-010>012-017>019-024>028-033>037-041-042-045-046-049>053-020000-
CENTRAL PENNSYLVANIA

CITY           SKY/WX    TMP DP  RH WIND       PRES   REMARKS
BRADFORD       MOCLDY    76  67  73 SW7       29.97S
DUBOIS         MOCLDY    76  69  79 SW8       29.97S
CLEARFIELD     CLOUDY    77  68  73 SW8       29.98R
JOHNSTOWN      MOCLDY    76  66  71 SW8       30.03S
ALTOONA        CLOUDY    78  70  76 SW5       29.99F
STATE COLLEGE  PTCLDY    79  72  78 SW6       29.96F
WILLIAMSPORT   CLEAR     81  70  69 CALM      29.90F
SELINSGROVE    PTCLDY    78  74  87 S3        29.93S
FT INDIANTOWN  MOCLDY    84  74  70 W3        29.95R
CAPITAL CITY   PTCLDY    83  71  67 SW6       29.94R
HARRISBURG     MOCLDY    82  75  79 CALM      29.93R
YORK           PTCLDY    83  74  74 CALM      29.95R
$$

PAZ038>040-043-044-047-048-054-055-060>062-067>071-020000-
EASTERN PENNSYLVANIA

CITY           SKY/WX    TMP DP  RH WIND       PRES   REMARKS
SCRANTON       PTCLDY    83  68  60 SW6       29.94F
MOUNT POCONO   PTCLDY    77  68  73 W5        30.01S
ALLENTOWN      CLEAR     85  69  58 S9        29.93S
QUAKERTOWN*    CLEAR     84  72  65 MISG      29.96R
READING        PTCLDY    85  71  63 SW3       29.92S
LANCASTER      MOCLDY    84  71  65 CALM      29.94R
COATESVILLE    MOCLDY    79  79 100 CALM      29.97S
POTTSTOWN      MOCLDY    84  72  67 SW3       29.96R
BLUE BELL      MOCLDY    86  72  62 S5        29.94R
DOYLESTOWN     PTCLDY    84  70  62 W6        29.94S
WILLOW GROVE   NOT AVBL
NORTH PHILA    MOCLDY    84  72  67 VRB3      29.95S
PHILADELPHIA   MOCLDY    86  73  65 S8        29.93S
$$




U.S. Dept. of Commerce
NOAA National Weather Service
1325 East West Highway
Silver Spring, MD 20910
E-mail: w-nws.webmaster@noaa.gov
Page last modified: May 16, 2007
NATIONAL WEATHER SERVICE: for Safety, for Work, for Fun - FOR LIFE